Regional Weather Roundup
Issued by NWS

Home | Current Version | Previous Version | Graphics & Text | Print | Product List | Glossary On
Versions: 1 2 3 4 5 6 7 8 9 10 11 12 13 14 15 16 17 18 19 20 21 22 23 24 25 26 27 28 29 30 31 32 33 34 35 36 37 38 39 40 41 42 43 44 45 46 47 48 49 50
000
ASUS43 KFSD 070310
RWRSD

WEATHER ROUNDUP FOR SOUTH DAKOTA
NATIONAL WEATHER SERVICE SIOUX FALLS SD
1000 PM CDT WED MAY 06 2015

NOTE: "FAIR" INDICATES FEW OR NO CLOUDS BELOW 12,000 FEET WITH NO
SIGNIFICANT WEATHER AND/OR OBSTRUCTIONS TO VISIBILITY.


SDZ001>005-009-010-012>017-070400-
NORTHWEST AND NORTH CENTRAL SOUTH DAKOTA

CITY           SKY/WX    TMP DP  RH WIND       PRES   REMARKS
BUFFALO          N/A     50  46  86 N28G38    29.66R
FAITH            N/A     57  55  93 N20       29.63
MOBRIDGE       LGT RAIN  60  59  96 N5        29.59R
$$

SDZ012>016-024>037-041>051-057-063-072>074-070400-
SOUTHWEST AND SOUTH CENTRAL SOUTH DAKOTA

CITY           SKY/WX    TMP DP  RH WIND       PRES   REMARKS
RAPID CTY ARPT LGT RAIN  50  47  89 NW30G39   29.70R
PIERRE         CLOUDY    59  54  83 CALM      29.61R
CUSTER         LGT RAIN  44  39  82 N12G21    29.74R
ELLSWORTH AFB  LGT RAIN  50  48  94 NW29G38   29.69
PHILIP         LGT RAIN  59  57  93 CALM      29.63R
PINE RIDGE     RAIN      52  48  86 N14       29.68R FOG
SPEARFISH      RAIN      46  46 100 W17G23    29.80R
WINNER         LGT RAIN  61  56  83 SE6       29.61S
$$

SDZ004>011-016>023-039-040-070400-
NORTHEAST SOUTH DAKOTA

CITY           SKY/WX    TMP DP  RH WIND       PRES   REMARKS
ABERDEEN       LGT RAIN  60  57  89 S7        29.64R
WATERTOWN      MOCLDY    63  59  87 SE14G22   29.70R
BROOKINGS      MOCLDY    64  61  88 SE17      29.72S
SISSETON         N/A     64  61  90 S17       29.68R
$$

SDZ017-020-022-023-036>040-048>070-070400-
SOUTHEAST SOUTH DAKOTA

CITY           SKY/WX    TMP DP  RH WIND       PRES   REMARKS
SIOUX FALLS    CLOUDY    67  59  75 SE20G33   29.70R
HURON          LGT RAIN  64  61  90 SE13G20   29.65R
CHAMBERLAIN    CLOUDY    58  57  96 CALM      29.62R
MITCHELL       RAIN      63  61  93 S14G25    29.65S FOG
YANKTON        CLOUDY    64  59  82 SE25G33   29.63R
$$

ABBREVIATIONS USED IN REMARKS
   TC - TEMPERATURE IN CELSIUS
  WCI - WIND CHILL INDEX
   HX - HEAT INDEX
  VSB - VISIBILITY




USA.gov is the U.S. government's official web portal to all federal, state and local government web resources and services.